DELTA 1 R/B, 9063

Orbit data source: Space-Track

DELTA 1 R/B, 9063 is space debris in SSO originally from a launch on Thu, 29 Jul 1976 UTC launched from the Air Force Western Test Range (AFWTR). Debris objects in space refer to the collection of defunct objects orbiting the Earth. Examples of debris include non-operational satellites, rocket bodies, and fragments generated from explosions, collisions, or faulty payload assembly.

Loading next visibility...
Identifier
9063, 1976-077B
Orbit
SSO
Country
Flag of USUS
Related business
Manufacturer
MDAC-HB
Mission
Spacecraft
Bus & Motor
DELTA/TR-201, Unknown motor
Mass
845 kg wet, 845 kg dry
Launch date (UTC)
1976-07-29 (49 years ago)
Launch vehicle
Unknown
Launch site
Air Force Western Test Range (AFWTR)
Object type
Payload
Rocket body
Debris
Shape & HBR
Unknown
Radar Cross Section
Large (>1 m²)

Expand to show TLE details & history
Last TLE update: 8 hours ago

TLE from 8 hours ago
0 DELTA 1 R/B
1 09063U 76077B   25289.52079148 -.00000014  00000-0  20947-3 0  9998
2 09063 102.0253 276.4218 0061454 129.5134 342.9965 12.50502422288647
Epoch: 2025-10-16T12:29Z
TLE epoch observation values (Epoch: 2025-10-16T12:29:56.383Z)
Latitude
64.89423°
Longitude
-89.44593°
Altitude
1,427.348 km
Speed
7.174 km/s
True Right ascension
08h 13m 16s
True Declination
64° 46' 24"
Sunlit
Object was in daylight at epoch
Visualization orbit readout
Latitude
Unknown
Longitude
Unknown
Altitude
Unknown
Speed
Unknown
Apparent Right ascension
Unknown
Apparent Declination
Unknown
Sunlit
N/A
Visualization observer readout
Local Sidereal Time
14:52:11
Azimuth
Unknown
Elevation
Unknown
Doppler factor
Unknown
Orbital elements
Apogee altitude
1,508.125 km
Perigee altitude
1,411.788 km
Semi-major axis
7,838.094 km
Eccentricity
0.00615
Inclination
102.0253°
RAAN
276.4218°
Arg. of periapsis
129.5134°
True anomaly
342.78904°
Mean anomaly
342.9965°
Eccentric anomaly
342.89293°
Mean motion
3.12772 °/min
Orbital period
115.1 mins
BSTAR
0.00020947
Loading maneuver chart data...
Computing Atmospheric mass density...
Loading historical data...
Loading historical data...
Loading historical data...
Loading historical data...
Loading historical data...
Loading historical data...
Loading historical data...

Documentation

Showing up to 5 results
|